Location: Freistadt
(48.5112°N, 14.5013°E)
Time: 08:46:33
(UTC+02:00)

PCSat - Pass Details

Date: 04 April 2023
Orbit: 783 x 794 km, 67.1° (Epoch: 29 May)

Event Time Altitude Azimuth Distance (km) Brightness Sun altitude
Rises 23:32:54 0° 326° (NW) 3,301 13.9 -32.0°
Reaches altitude 10° 23:35:21 10° 329° (NNW) 2,370 12.9 -32.2°
Enters shadow 23:39:19 47° 349° (N) 1,045 10.4 -32.5°
